Find Starlink 34549

NORAD ID: 65017 Int'l Des: 2025-161 Owner: SPXS Country: US Constellation: starlink operational
LEOCIRCULAR

リアルタイム位置

3D地球を読み込み中...

Starlink 34549について

説明を読み込み中...

次回通過

Passes for default location (London). Set your location on the main map for personalized predictions.

高度履歴

Loading altitude history...

軌道要素

1 65017U 25161C 26133.86754713 .00012137 00000-0 42119-3 0 9994
2 65017 53.1614 351.1163 0001442 99.5436 260.5728 15.30202851 45420
Epoch: May 13, 2026 • Age: 17 hours

現在のステータス

高度 494.6 km
速度 7.62 km/s
衛星直下点 -53.09°S, 172.59°W
打ち上げ日 Jul 30, 2025
運用期間 0.7 years
タイプ internet

技術仕様

分類 Payload
質量 575.00 kg
乾燥質量 530.00 kg
総質量 575.00 kg
長さ 0.30 m
直径 4.10 m
スパン 29.00 m
形状 Box + pan
製造者 SPXS
バスタイプ Starlink V2MO
フェーズステータス In Orbit
所有者/国 SPXS/US

Most Searched